Weather History for KENW - March, 2013

Change the Weather History Date:

Tuesday, March 5, 2013

  Actual Average Record
Temperature  
Mean Temperature 30 °F -  
Max Temperature 33 °F 37 °F 63 °F (2009)
Min Temperature 28 °F 23 °F -6 °F (2015)
Degree Days  
Heating Degree Days 34    
Moisture  
Dew Point 26 °F    
Average Humidity 83    
Maximum Humidity 93    
Minimum Humidity 70    
Precipitation  
Precipitation 0.13 in - - ()
Sea Level Pressure  
Sea Level Pressure 29.93 in    
Wind  
Wind Speed 14 mph (NE)    
Max Wind Speed 20 mph    
Max Gust Speed 30 mph    
Visibility 4 miles    
Events Fog , Snow    
Averages and records for this station are not official NWS values.
T = Trace of Precipitation, MM = Missing Value Source: NWS Daily Summary

Daily Weather History Graph

Daily Weather History Graph

Search for Another Location

Airport or City:

Trip Planner

Search our weather history database for the weather conditions in past years. The results will help you decide how hot, cold, wet, or windy it might be!

Date:

Astronomy

Mar. 05, 2013 Rise Set
Actual Time 6:20 AM CST 5:46 PM CST
Civil Twilight 5:52 AM CST 6:14 PM CST
Nautical Twilight 5:19 AM CST 6:47 PM CST
Astronomical Twilight 4:46 AM CST 7:20 PM CST
Moon 1:38 AM CST (3/5) 11:19 AM CST (3/5)
Length of Visible Light 12h 22m
Length of Day
11h 26m
Last Quarter, 40% of the Moon is Illuminated
Mar 5
Last Quarter
Mar 11
New
Mar 19
First Quarter
Mar 27
Full
Apr 2
Last Quarter

Hourly Weather History & Observations

Time (CST) Temp. Windchill Dew Point Humidity Pressure Visibility Wind Dir Wind Speed Gust Speed Precip Events Conditions
1:53 AM 32.0 °F 23.0 °F 24.1 °F 73% 30.01 in 10.0 mi East 11.5 mph - N/A   Overcast
2:53 AM 32.0 °F 23.0 °F 24.1 °F 73% 29.99 in 10.0 mi East 11.5 mph - N/A   Overcast
3:53 AM 32.0 °F 21.6 °F 24.1 °F 73% 29.97 in 10.0 mi East 15.0 mph - N/A   Overcast
4:53 AM 32.0 °F 21.6 °F 25.0 °F 75% 29.96 in 10.0 mi East 15.0 mph - N/A   Overcast
5:35 AM 32.0 °F 22.5 °F 24.8 °F 75% 29.92 in 10.0 mi East 12.7 mph - N/A   Overcast
5:53 AM 33.1 °F 23.4 °F 24.1 °F 70% 29.95 in 10.0 mi East 13.8 mph - N/A   Overcast
6:53 AM 33.1 °F 23.0 °F 25.0 °F 72% 29.94 in 10.0 mi East 15.0 mph - N/A   Overcast
7:33 AM 33.8 °F 23.9 °F 24.8 °F 70% 29.91 in 1.8 mi East 15.0 mph - 0.00 in Snow Light Snow
7:49 AM 33.8 °F 25.3 °F 24.8 °F 70% 29.91 in 3.0 mi East 11.5 mph - 0.00 in Snow Light Snow
7:50 AM 33.1 °F 24.4 °F 25.0 °F 72% 29.94 in 3.0 mi East 11.5 mph - 0.00 in Snow Light Snow
8:07 AM 33.8 °F 23.2 °F 24.8 °F 70% 29.92 in 1.8 mi East 17.3 mph - 0.00 in Snow Light Snow
8:41 AM 30.2 °F 18.1 °F 26.6 °F 86% 29.92 in 0.5 mi East 18.4 mph - 0.00 in Snow Snow
8:48 AM 30.2 °F 19.8 °F 26.6 °F 86% 29.92 in 0.2 mi East 13.8 mph - 0.00 in Snow Heavy Snow
8:53 AM 30.0 °F 19.5 °F 27.0 °F 88% 29.95 in 0.2 mi East 13.8 mph - 0.00 in Fog , Snow Snow
9:04 AM 30.2 °F 20.8 °F 26.6 °F 86% 29.92 in 0.2 mi East 11.5 mph - 0.01 in Fog , Snow Snow
9:53 AM 30.0 °F 20.5 °F 27.0 °F 88% 29.94 in 0.2 mi East 11.5 mph - 0.04 in Fog , Snow Snow
10:53 AM 30.0 °F 17.9 °F 27.0 °F 88% 29.91 in 0.2 mi East 18.4 mph - 0.02 in Fog , Snow Snow
11:11 AM 30.2 °F 18.1 °F 26.6 °F 86% 29.88 in 0.5 mi East 18.4 mph - 0.01 in Fog , Snow Snow
11:53 AM 30.0 °F 17.5 °F 27.0 °F 88% 29.88 in 0.5 mi ENE 19.6 mph - 0.01 in Fog , Snow Snow
12:53 PM 30.0 °F 18.7 °F 26.1 °F 85% 29.87 in 0.5 mi East 16.1 mph - 0.01 in Fog , Snow Light Snow
1:53 PM 28.9 °F 17.7 °F 27.0 °F 92% 29.87 in 0.5 mi ENE 15.0 mph - 0.01 in Fog , Snow Snow
2:53 PM 28.9 °F 16.5 °F 26.1 °F 89% 29.88 in 0.5 mi ENE 18.4 mph - 0.02 in Fog , Snow Snow
3:53 PM 28.9 °F 16.9 °F 26.1 °F 89% 29.88 in 0.5 mi NE 17.3 mph - 0.01 in Fog , Snow Light Snow
4:37 PM 28.4 °F 18.5 °F 24.8 °F 86% 29.86 in 1.0 mi NE 11.5 mph 21.9 mph 0.00 in Snow Light Snow
4:53 PM 28.9 °F 17.7 °F 25.0 °F 85% 29.89 in 1.5 mi NE 15.0 mph 24.2 mph 0.00 in Snow Light Snow
5:08 PM 28.4 °F 16.2 °F 26.6 °F 93% 29.87 in 0.8 mi NNE 17.3 mph 23.0 mph 0.00 in Snow Light Snow
5:19 PM 28.4 °F 17.0 °F 26.6 °F 93% 29.88 in 0.8 mi NNE 15.0 mph 23.0 mph 0.00 in Snow Light Snow
5:35 PM 30.2 °F 19.8 °F 26.6 °F 86% 29.88 in 0.8 mi NNE 13.8 mph - 0.00 in Snow Light Snow
5:53 PM 30.0 °F 18.3 °F 26.1 °F 85% 29.92 in 0.5 mi NE 17.3 mph - 0.00 in Fog , Snow Light Snow
6:24 PM 30.2 °F 19.3 °F 26.6 °F 86% 29.90 in 0.5 mi NNE 15.0 mph 21.9 mph 0.00 in Fog , Snow Light Snow
6:53 PM 30.0 °F 21.1 °F 28.0 °F 92% 29.93 in 0.5 mi NNE 10.4 mph - 0.01 in Fog , Snow Light Snow
7:27 PM 30.2 °F 18.9 °F 28.4 °F 93% 29.91 in 0.8 mi NNE 16.1 mph 24.2 mph 0.00 in Snow Light Snow
7:53 PM 30.9 °F 19.8 °F 27.0 °F 85% 29.94 in 0.8 mi North 16.1 mph 29.9 mph 0.00 in Snow Light Snow
8:00 PM 30.2 °F 18.5 °F 26.6 °F 86% 29.92 in 1.8 mi North 17.3 mph 26.5 mph 0.00 in Snow Light Snow
8:41 PM 30.2 °F 18.9 °F 24.8 °F 80% 29.93 in 9.0 mi North 16.1 mph 24.2 mph 0.00 in   Overcast
8:53 PM 30.0 °F 18.3 °F 25.0 °F 82% 29.96 in 10.0 mi North 17.3 mph 23.0 mph 0.00 in   Overcast
9:53 PM 30.0 °F 19.5 °F 25.0 °F 82% 29.99 in 10.0 mi North 13.8 mph - N/A   Overcast
10:11 PM 30.2 °F 19.8 °F 24.8 °F 80% 29.96 in 10.0 mi North 13.8 mph 19.6 mph N/A   Overcast
10:46 PM 30.2 °F 20.8 °F 26.6 °F 86% 29.97 in 10.0 mi North 11.5 mph - N/A   Overcast
10:53 PM 30.9 °F 20.7 °F 26.1 °F 82% 30.00 in 10.0 mi North 13.8 mph - N/A   Overcast
11:53 PM 30.9 °F 19.4 °F 25.0 °F 79% 30.01 in 10.0 mi North 17.3 mph 25.3 mph N/A   Overcast